Batesville, Indiana, United States (47006)
Lat: 39.30N, Lon: 85.22W
Wx Zone: INZ073
Local Info
Past Weather Observations for Today

NOTE: This archive is for the closest National Weather Service station to Batesville. Information may differ from the station used for current weather conditions.

Click here for Long-term Archive

Time Weather Temperature Dewpoint Humidity Pressure Winds Precip Visibility
15:52
Mostly Cloudy
39°F / 4°C 27°F / -3°C 61% 30.04 in
(1017 mb)
Calm - 10SM
14:52
Mostly Cloudy
37°F / 3°C 25°F / -4°C 60% 30.06 in
(1018 mb)
Calm - 10SM
14:22
Mostly Cloudy
37°F / 3°C 25°F / -4°C 60% 30.06 in
(1018 mb)
Calm - 8SM
13:52
Mostly Cloudy
39°F / 4°C 27°F / -3°C 61% 30.06 in
(1018 mb)
N 3.5 mph
(N 6 kph)
- 9SM
13:00
Overcast
36°F / 2°C 27°F / -3°C 70% 30.06 in
(1018 mb)
NE 3.5 mph
(NE 6 kph)
- 8SM
12:52
Overcast
36°F / 2°C 27°F / -3°C 70% 30.06 in
(1018 mb)
ENE 4.6 mph
(ENE 7 kph)
- 8SM
11:52
Overcast
34°F / 1°C 27°F / -3°C 75% 30.09 in
(1019 mb)
NE 3.5 mph
(NE 6 kph)
- 7SM
11:16
Overcast
Hazy
34°F / 1°C 25°F / -4°C 70% 30.12 in
(1020 mb)
NE 4.6 mph
(NE 7 kph)
- 6SM
10:52
Overcast
34°F / 1°C 25°F / -4°C 70% 30.12 in
(1020 mb)
NE 5.8 mph
(NE 9 kph)
- 7SM
10:27
Overcast
Hazy
32°F / 0°C 25°F / -4°C 75% 30.12 in
(1020 mb)
NE 8.1 mph
(NE 13 kph)
- 6SM
09:52
Overcast
Hazy
30°F / -1°C 25°F / -4°C 80% 30.12 in
(1020 mb)
NE 5.8 mph
(NE 9 kph)
- 6SM
08:52
Overcast
Hazy
30°F / -1°C 25°F / -4°C 80% 30.12 in
(1020 mb)
N 5.8 mph
(N 9 kph)
- 6SM
08:23
Overcast
Hazy
28°F / -2°C 23°F / -5°C 80% 30.12 in
(1020 mb)
NNE 5.8 mph
(NNE 9 kph)
- 5SM
07:52
Mostly Cloudy
Hazy
27°F / -3°C 21°F / -6°C 80% 30.12 in
(1020 mb)
N 4.6 mph
(N 7 kph)
- 6SM
06:52
Clear
27°F / -3°C 21°F / -6°C 80% 30.09 in
(1019 mb)
N 9.2 mph
(N 15 kph)
- 7SM
05:52
Clear
28°F / -2°C 23°F / -5°C 80% 30.09 in
(1019 mb)
N 5.8 mph
(N 9 kph)
- 7SM
04:52
Partly Cloudy
Hazy
27°F / -3°C 21°F / -6°C 80% 30.09 in
(1019 mb)
NNE 5.8 mph
(NNE 9 kph)
- 6SM
03:52
Partly Cloudy
30°F / -1°C 25°F / -4°C 80% 30.12 in
(1020 mb)
ENE 6.9 mph
(ENE 11 kph)
- 7SM
02:52
Partly Cloudy
Hazy
28°F / -2°C 23°F / -5°C 80% 30.12 in
(1020 mb)
NNE 4.6 mph
(NNE 7 kph)
- 6SM
02:48
Partly Cloudy
Hazy
28°F / -2°C 23°F / -5°C 80% 30.12 in
(1020 mb)
NNE 5.8 mph
(NNE 9 kph)
- 6SM
02:26
Mostly Cloudy
Hazy
30°F / -1°C 25°F / -4°C 80% 30.15 in
(1021 mb)
NNE 4.6 mph
(NNE 7 kph)
- 6SM
01:52
Partly Cloudy
Hazy
28°F / -2°C 23°F / -5°C 80% 30.15 in
(1021 mb)
N 4.6 mph
(N 7 kph)
- 6SM
00:52
Overcast
30°F / -1°C 25°F / -4°C 80% 30.15 in
(1021 mb)
NNW 5.8 mph
(NNW 9 kph)
- 7SM
Time Weather Temperature Dewpoint Humidity Pressure Winds Precip Visibility


Weather for websites

WeatherForYou.com, LLC is not responsible for any damages or problems caused by this service. Current weather conditions are obtained from the closest station including government and personal stations which may have varying degrees of accuracy. Weather forecasts are derived from the NOAA NDFD. Like all things, this site belongs to Jesus Christ... He just trusts me to maintain it. If you have any questions or comments email webmaster@weatherforyou.com

Copyright © 2014, WeatherForYou.com LLC. All rights reserved.